Weather History for Appleton, MN

Change the Weather History Date:

Monday, October 22, 2012

  Actual Average Record
Temperature  
Mean Temperature 52 °F -  
Max Temperature 62 °F 52 °F 71 °F (1998)
Min Temperature 42 °F 33 °F 17 °F (1997)
Degree Days  
Heating Degree Days 13    
Growing Degree Days 2 (Base 50)    
Moisture  
Dew Point 45 °F    
Average Humidity 76    
Maximum Humidity 93    
Minimum Humidity 55    
Precipitation  
Precipitation 0.00 in - - ()
Sea Level Pressure  
Sea Level Pressure 29.92 in    
Wind  
Wind Speed 11 mph (NE)    
Max Wind Speed 17 mph    
Max Gust Speed 22 mph    
Visibility 10 miles    
Events Rain    
Averages and records for this station are not official NWS values.
T = Trace of Precipitation, MM = Missing Value Source: NWS Daily Summary

Daily Weather History Graph

Daily Weather History Graph

Search for Another Location

Airport:

Trip Planner

Search our weather history database for the weather conditions in past years. The results will help you decide how hot, cold, wet, or windy it might be!

Date:

Astronomy

Oct. 22, 2012 Rise Set
Actual Time 7:49 AM CDT 6:26 PM CDT
Civil Twilight 7:19 AM CDT 6:56 PM CDT
Nautical Twilight 6:45 AM CDT 7:30 PM CDT
Astronomical Twilight 6:11 AM CDT 8:04 PM CDT
Moon 2:52 PM CDT (10/22) 12:19 AM CDT (10/22)
Length of Visible Light 11h 36m
Length of Day
10h 36m
First Quarter, 56% of the Moon is Illuminated
Oct 22
First Quarter
Oct 29
Full
Nov 6
Last Quarter
Nov 13
New
Nov 20
First Quarter

Hourly Weather History & Observations

Time (CDT) Temp. Windchill Dew Point Humidity Pressure Visibility Wind Dir Wind Speed Gust Speed Precip Events Conditions
12:13 AM 46.4 °F 41.1 °F 42.8 °F 87% 29.95 in 10.0 mi North 11.5 mph - N/A   Clear
12:33 AM 46.4 °F 41.1 °F 42.8 °F 87% 29.96 in 10.0 mi North 11.5 mph - N/A   Clear
12:53 AM 44.6 °F 38.1 °F 42.8 °F 93% 29.95 in 10.0 mi North 13.8 mph - N/A   Clear
1:33 AM 44.6 °F 38.4 °F 42.8 °F 93% 29.95 in 10.0 mi North 12.7 mph - N/A   Clear
1:54 AM 44.6 °F 38.4 °F 42.8 °F 93% 29.95 in 10.0 mi North 12.7 mph - N/A   Clear
2:54 AM 44.6 °F 40.2 °F 42.8 °F 93% 29.94 in 10.0 mi North 8.1 mph - N/A   Clear
3:13 AM 44.6 °F 40.2 °F 41.0 °F 87% 29.94 in 10.0 mi North 8.1 mph - N/A   Clear
4:14 AM 42.8 °F 37.0 °F 41.0 °F 93% 29.94 in 10.0 mi North 10.4 mph - N/A   Clear
4:54 AM 44.6 °F 38.8 °F 42.8 °F 93% 29.95 in 10.0 mi North 11.5 mph - N/A   Clear
5:13 AM 44.6 °F 38.8 °F 42.8 °F 93% 29.95 in 10.0 mi North 11.5 mph - N/A   Clear
5:33 AM 44.6 °F 39.7 °F 42.8 °F 93% 29.95 in 10.0 mi North 9.2 mph - N/A   Scattered Clouds
5:53 AM 44.6 °F 39.7 °F 42.8 °F 93% 29.96 in 10.0 mi North 9.2 mph - N/A   Scattered Clouds
6:13 AM 44.6 °F 39.7 °F 42.8 °F 93% 29.96 in 10.0 mi North 9.2 mph - N/A   Clear
7:13 AM 44.6 °F 39.7 °F 42.8 °F 93% 29.97 in 7.0 mi NNW 9.2 mph - N/A   Scattered Clouds
7:33 AM 44.6 °F 40.2 °F 42.8 °F 93% 29.97 in 7.0 mi North 8.1 mph - N/A   Mostly Cloudy
8:14 AM 46.4 °F 41.9 °F 42.8 °F 87% 29.96 in 7.0 mi North 9.2 mph - N/A   Mostly Cloudy
8:53 AM 48.2 °F - 46.4 °F 93% 29.98 in 7.0 mi North 9.2 mph - N/A   Overcast
9:33 AM 51.8 °F - 48.2 °F 88% 29.98 in 10.0 mi NE 13.8 mph - N/A   Overcast
9:53 AM 51.8 °F - 48.2 °F 88% 29.98 in 10.0 mi ENE 13.8 mph 20.7 mph N/A   Mostly Cloudy
10:13 AM 53.6 °F - 46.4 °F 77% 29.98 in 10.0 mi NE 15.0 mph 19.6 mph N/A   Mostly Cloudy
10:33 AM 53.6 °F - 48.2 °F 82% 29.98 in 10.0 mi ENE 15.0 mph 21.9 mph N/A   Mostly Cloudy
10:54 AM 53.6 °F - 48.2 °F 82% 29.98 in 10.0 mi ENE 16.1 mph 19.6 mph N/A   Mostly Cloudy
11:33 AM 57.2 °F - 48.2 °F 72% 29.96 in 10.0 mi ENE 13.8 mph - N/A   Scattered Clouds
12:13 PM 57.2 °F - 46.4 °F 67% 29.96 in 10.0 mi ENE 13.8 mph - N/A   Scattered Clouds
12:33 PM 59.0 °F - 46.4 °F 63% 29.95 in 10.0 mi East 13.8 mph - N/A   Mostly Cloudy
12:53 PM 60.8 °F - 46.4 °F 59% 29.94 in 10.0 mi ENE 17.3 mph 20.7 mph N/A   Scattered Clouds
1:14 PM 62.6 °F - 46.4 °F 55% 29.93 in 10.0 mi East 15.0 mph - N/A   Scattered Clouds
1:33 PM 60.8 °F - 46.4 °F 59% 29.92 in 10.0 mi East 15.0 mph - N/A   Mostly Cloudy
1:53 PM 60.8 °F - 46.4 °F 59% 29.92 in 10.0 mi East 12.7 mph 17.3 mph N/A   Overcast
2:13 PM 60.8 °F - 46.4 °F 59% 29.91 in 10.0 mi East 12.7 mph - N/A   Mostly Cloudy
2:33 PM 60.8 °F - 46.4 °F 59% 29.90 in 10.0 mi ENE 13.8 mph - N/A   Mostly Cloudy
3:13 PM 62.6 °F - 46.4 °F 55% 29.89 in 10.0 mi East 15.0 mph - N/A   Mostly Cloudy
3:33 PM 60.8 °F - 46.4 °F 59% 29.90 in 10.0 mi East 13.8 mph - N/A   Mostly Cloudy
3:53 PM 60.8 °F - 46.4 °F 59% 29.90 in 10.0 mi East 9.2 mph - N/A   Overcast
4:14 PM 59.0 °F - 46.4 °F 63% 29.89 in 10.0 mi East 10.4 mph - N/A   Overcast
4:34 PM 59.0 °F - 46.4 °F 63% 29.88 in 10.0 mi East 11.5 mph - N/A   Overcast
4:53 PM 59.0 °F - 46.4 °F 63% 29.88 in 10.0 mi East 9.2 mph - N/A   Overcast
5:14 PM 57.2 °F - 46.4 °F 67% 29.88 in 10.0 mi East 9.2 mph - N/A   Overcast
5:33 PM 57.2 °F - 46.4 °F 67% 29.88 in 10.0 mi East 10.4 mph - N/A   Overcast
5:54 PM 57.2 °F - 46.4 °F 67% 29.88 in 10.0 mi East 11.5 mph - N/A   Overcast
6:14 PM 57.2 °F - 46.4 °F 67% 29.89 in 10.0 mi East 9.2 mph - N/A   Overcast
6:33 PM 57.2 °F - 46.4 °F 67% 29.89 in 10.0 mi East 6.9 mph - N/A   Overcast
6:54 PM 55.4 °F - 46.4 °F 72% 29.89 in 10.0 mi East 8.1 mph - N/A Rain Light Rain
7:33 PM 55.4 °F - 46.4 °F 72% 29.88 in 10.0 mi East 10.4 mph - N/A   Overcast
7:54 PM 55.4 °F - 46.4 °F 72% 29.88 in 10.0 mi East 9.2 mph - N/A   Overcast
8:53 PM 55.4 °F - 46.4 °F 72% 29.88 in 10.0 mi East 8.1 mph - N/A   Overcast
9:13 PM 53.6 °F - 46.4 °F 77% 29.87 in 10.0 mi East 8.1 mph - N/A   Overcast
9:53 PM 53.6 °F - 46.4 °F 77% 29.86 in 10.0 mi East 10.4 mph - N/A   Overcast
10:33 PM 53.6 °F - 46.4 °F 77% 29.85 in 10.0 mi East 10.4 mph - N/A   Overcast
10:53 PM 53.6 °F - 46.4 °F 77% 29.85 in 10.0 mi East 9.2 mph - N/A   Overcast
11:13 PM 53.6 °F - 46.4 °F 77% 29.84 in 10.0 mi East 10.4 mph - N/A   Overcast
11:33 PM 53.6 °F - 46.4 °F 77% 29.83 in 10.0 mi East 9.2 mph - N/A   Overcast
11:53 PM 53.6 °F - 46.4 °F 77% 29.83 in 10.0 mi East 9.2 mph - N/A   Overcast